| time (UTC) | temp C | wind direction | speed KPH | gust KPH | rain 1hr cm | rain 24hr cm | rain mn cm | humidity % | barometer mb |
| 20260505170540 | 13 | 143 | 17.7 | 30.6 | 0.00 | 0.00 | 0.00 | 53 | 1009.6 |
| 20260505170054 | 13 | 360 | 20.9 | 32.2 | 0.00 | 0.00 | 0.00 | 53 | 1009.6 |
| 20260505165540 | 13 | 360 | 16.1 | 32.2 | 0.00 | 0.00 | 0.00 | 53 | 1009.6 |
| 20260505165041 | 13 | 169 | 17.7 | 32.2 | 0.00 | 0.00 | 0.00 | 54 | 1009.6 |
| 20260505164614 | 13 | 175 | 11.3 | 29.0 | 0.00 | 0.00 | 0.00 | 54 | 1009.5 |
| 20260505164043 | 13 | 219 | 11.3 | 27.4 | 0.00 | 0.00 | 0.00 | 54 | 1009.5 |
| 20260505163541 | 13 | 119 | 17.7 | 27.4 | 0.00 | 0.00 | 0.00 | 54 | 1009.5 |
| 20260505163053 | 13 | 360 | 14.5 | 29.0 | 0.00 | 0.00 | 0.00 | 54 | 1009.6 |
| 20260505162540 | 13 | 360 | 17.7 | 29.0 | 0.00 | 0.00 | 0.00 | 54 | 1009.5 |
| 20260505162041 | 13 | 360 | 16.1 | 29.0 | 0.00 | 0.00 | 0.00 | 54 | 1009.5 |
| 20260505161605 | 13 | 360 | 16.1 | 29.0 | 0.00 | 0.00 | 0.00 | 54 | 1009.4 |
| 20260505161040 | 13 | 360 | 16.1 | 29.0 | 0.00 | 0.00 | 0.00 | 55 | 1009.4 |
| 20260505160541 | 13 | 360 | 16.1 | 29.0 | 0.00 | 0.00 | 0.00 | 55 | 1009.4 |
| 20260505153053 | 12 | 360 | 11.3 | 25.7 | 0.00 | 0.00 | 0.00 | 57 | 1009.2 |
| 20260505152541 | 12 | 360 | 12.9 | 25.7 | 0.00 | 0.00 | 0.00 | 58 | 1009.2 |
| 20260505152040 | 12 | 360 | 12.9 | 25.7 | 0.00 | 0.00 | 0.00 | 58 | 1009.2 |
| 20260505151555 | 12 | 360 | 12.9 | 24.1 | 0.00 | 0.00 | 0.00 | 58 | 1009.1 |
| 20260505151040 | 12 | 360 | 11.3 | 24.1 | 0.00 | 0.00 | 0.00 | 58 | 1009.1 |
| 20260505150540 | 12 | 360 | 12.9 | 24.1 | 0.00 | 0.00 | 0.00 | 60 | 1009.1 |
| 20260505140537 | 12 | 360 | 4.8 | 9.7 | 0.00 | 0.00 | 0.00 | 68 | 1008.7 |
| 20260505130108 | 11 | 360 | 6.4 | 14.5 | 0.00 | 0.00 | 0.00 | 68 | 1007.9 |
| 20260505125038 | 11 | 360 | 6.4 | 14.5 | 0.00 | 0.00 | 0.00 | 67 | 1007.8 |
| 20260505124602 | 11 | 360 | 6.4 | 14.5 | 0.00 | 0.00 | 0.00 | 67 | 1007.8 |
| 20260505124040 | 11 | 360 | 4.8 | 9.7 | 0.00 | 0.00 | 0.00 | 67 | 1007.7 |
| 20260505123541 | 11 | 360 | 4.8 | 9.7 | 0.00 | 0.00 | 0.00 | 67 | 1007.6 |
| 20260505123053 | 11 | 360 | 4.8 | 9.7 | 0.00 | 0.00 | 0.00 | 66 | 1007.6 |
| 20260505122540 | 11 | 360 | 1.6 | 6.4 | 0.00 | 0.00 | 0.00 | 66 | 1007.6 |
| 20260505122040 | 11 | 360 | 1.6 | 6.4 | 0.00 | 0.00 | 0.00 | 66 | 1007.6 |
| 20260505121551 | 11 | 360 | 3.2 | 8.0 | 0.00 | 0.00 | 0.00 | 66 | 1007.6 |
| 20260505121040 | 11 | 360 | 1.6 | 8.0 | 0.00 | 0.00 | 0.00 | 66 | 1007.6 |
| 20260505120542 | 12 | 360 | 3.2 | 8.0 | 0.00 | 0.00 | 0.00 | 66 | 1007.6 |
| 20260505120109 | 12 | 360 | 3.2 | 8.0 | 0.00 | 0.00 | 0.00 | 65 | 1007.6 |
| 20260505115537 | 12 | 360 | 1.6 | 8.0 | 0.00 | 0.00 | 0.00 | 65 | 1007.6 |
| 20260505115041 | 12 | 360 | 0.0 | 3.2 | 0.00 | 0.00 | 0.00 | 65 | 1007.6 |
| 20260505114556 | 12 | 0 | 0.0 | 8.0 | 0.00 | 0.00 | 0.00 | 65 | 1007.6 |
| 20260505114038 | 12 | 360 | 0.0 | 8.0 | 0.00 | 0.00 | 0.00 | 65 | 1007.6 |
| 20260505113542 | 12 | 360 | 1.6 | 8.0 | 0.00 | 0.00 | 0.00 | 65 | 1007.5 |
| 20260505113053 | 12 | 360 | 4.8 | 8.0 | 0.00 | 0.00 | 0.00 | 65 | 1007.4 |
| 20260505112540 | 12 | 360 | 4.8 | 8.0 | 0.00 | 0.00 | 0.00 | 65 | 1007.4 |
| 20260505112040 | 12 | 360 | 4.8 | 8.0 | 0.00 | 0.00 | 0.00 | 65 | 1007.4 |
| 20260505111553 | 12 | 360 | 3.2 | 9.7 | 0.00 | 0.00 | 0.00 | 64 | 1007.4 |
| 20260505111040 | 12 | 360 | 3.2 | 9.7 | 0.00 | 0.00 | 0.00 | 64 | 1007.4 |
| 20260505110540 | 12 | 360 | 3.2 | 12.9 | 0.00 | 0.00 | 0.00 | 64 | 1007.4 |
| 20260505102038 | 12 | 360 | 4.8 | 14.5 | 0.00 | 0.00 | 0.00 | 62 | 1007.3 |
| 20260505101550 | 12 | 360 | 4.8 | 14.5 | 0.00 | 0.00 | 0.00 | 62 | 1007.4 |
| 20260505101039 | 12 | 360 | 8.0 | 14.5 | 0.00 | 0.00 | 0.00 | 62 | 1007.4 |
| 20260505100537 | 12 | 360 | 8.0 | 16.1 | 0.00 | 0.00 | 0.00 | 62 | 1007.4 |
| 20260505100047 | 12 | 360 | 9.7 | 16.1 | 0.00 | 0.00 | 0.00 | 62 | 1007.4 |
| 20260505095539 | 12 | 360 | 8.0 | 16.1 | 0.00 | 0.00 | 0.00 | 62 | 1007.5 |
| 20260505095037 | 12 | 360 | 8.0 | 14.5 | 0.00 | 0.00 | 0.00 | 62 | 1007.5 |
| 20260505094551 | 12 | 360 | 8.0 | 12.9 | 0.00 | 0.00 | 0.00 | 63 | 1007.6 |
| 20260505094037 | 12 | 360 | 6.4 | 12.9 | 0.00 | 0.00 | 0.00 | 63 | 1007.6 |
| 20260505093537 | 12 | 360 | 3.2 | 12.9 | 0.00 | 0.00 | 0.00 | 63 | 1007.6 |
| 20260505093051 | 12 | 360 | 6.4 | 12.9 | 0.00 | 0.00 | 0.00 | 63 | 1007.7 |
| 20260505092539 | 12 | 360 | 6.4 | 14.5 | 0.00 | 0.00 | 0.00 | 63 | 1007.7 |
| 20260505092038 | 12 | 360 | 4.8 | 17.7 | 0.00 | 0.00 | 0.00 | 62 | 1007.7 |
| 20260505091550 | 12 | 360 | 6.4 | 17.7 | 0.00 | 0.00 | 0.00 | 62 | 1007.7 |
| 20260505091040 | 12 | 360 | 8.0 | 17.7 | 0.00 | 0.00 | 0.00 | 62 | 1007.6 |
| 20260505090537 | 12 | 360 | 8.0 | 24.1 | 0.00 | 0.00 | 0.00 | 62 | 1007.7 |
| 20260505090052 | 12 | 360 | 9.7 | 24.1 | 0.00 | 0.00 | 0.00 | 62 | 1007.8 |
| 20260505085538 | 12 | 360 | 12.9 | 20.9 | 0.00 | 0.00 | 0.00 | 62 | 1007.8 |
| 20260505085041 | 12 | 360 | 8.0 | 22.5 | 0.00 | 0.00 | 0.00 | 62 | 1007.8 |
| 20260505084555 | 12 | 360 | 9.7 | 22.5 | 0.00 | 0.00 | 0.00 | 62 | 1007.8 |
| 20260505084040 | 12 | 360 | 12.9 | 19.3 | 0.00 | 0.00 | 0.00 | 62 | 1007.8 |
| 20260505083540 | 12 | 360 | 9.7 | 19.3 | 0.00 | 0.00 | 0.00 | 62 | 1007.8 |
| 20260505083053 | 12 | 360 | 11.3 | 19.3 | 0.00 | 0.00 | 0.00 | 62 | 1007.8 |
| 20260505082540 | 12 | 360 | 11.3 | 19.3 | 0.00 | 0.00 | 0.00 | 62 | 1007.9 |
| 20260505082040 | 12 | 360 | 9.7 | 19.3 | 0.00 | 0.00 | 0.00 | 62 | 1007.9 |
| 20260505081558 | 12 | 360 | 11.3 | 22.5 | 0.00 | 0.00 | 0.00 | 63 | 1007.9 |
| 20260505081037 | 12 | 360 | 12.9 | 25.7 | 0.00 | 0.00 | 0.00 | 63 | 1008.0 |
| 20260505080538 | 12 | 360 | 14.5 | 25.7 | 0.00 | 0.00 | 0.00 | 63 | 1008.1 |
| 20260505080055 | 12 | 360 | 12.9 | 19.3 | 0.00 | 0.00 | 0.00 | 63 | 1008.1 |
| 20260505075540 | 12 | 360 | 12.9 | 16.1 | 0.00 | 0.00 | 0.00 | 63 | 1008.2 |
| 20260505075038 | 12 | 360 | 8.0 | 16.1 | 0.00 | 0.00 | 0.00 | 63 | 1008.3 |
| 20260505074551 | 12 | 360 | 8.0 | 16.1 | 0.00 | 0.00 | 0.00 | 63 | 1008.3 |
| 20260505074037 | 12 | 360 | 9.7 | 16.1 | 0.00 | 0.00 | 0.00 | 63 | 1008.3 |
| 20260505073538 | 12 | 360 | 9.7 | 16.1 | 0.00 | 0.00 | 0.00 | 63 | 1008.3 |
| 20260505073052 | 12 | 360 | 6.4 | 17.7 | 0.00 | 0.00 | 0.00 | 63 | 1008.3 |
| 20260505072539 | 12 | 360 | 8.0 | 17.7 | 0.00 | 0.00 | 0.00 | 63 | 1008.5 |
| 20260505072043 | 12 | 360 | 9.7 | 17.7 | 0.00 | 0.00 | 0.00 | 63 | 1008.5 |
| 20260505071553 | 12 | 360 | 11.3 | 17.7 | 0.00 | 0.00 | 0.00 | 62 | 1008.5 |
| 20260505071039 | 12 | 360 | 9.7 | 22.5 | 0.00 | 0.00 | 0.00 | 62 | 1008.6 |
| 20260505070543 | 12 | 360 | 11.3 | 22.5 | 0.00 | 0.00 | 0.00 | 62 | 1008.7 |
| 20260505070056 | 12 | 360 | 9.7 | 14.5 | 0.00 | 0.00 | 0.00 | 62 | 1008.7 |
| 20260505065538 | 13 | 360 | 6.4 | 12.9 | 0.00 | 0.00 | 0.00 | 62 | 1008.7 |
| 20260505065039 | 13 | 360 | 4.8 | 12.9 | 0.00 | 0.00 | 0.00 | 62 | 1008.7 |
| 20260505064546 | 13 | 360 | 8.0 | 12.9 | 0.00 | 0.00 | 0.00 | 62 | 1008.7 |
| 20260505064037 | 13 | 360 | 6.4 | 14.5 | 0.00 | 0.00 | 0.00 | 62 | 1008.7 |
| 20260505063538 | 13 | 360 | 6.4 | 17.7 | 0.00 | 0.00 | 0.00 | 61 | 1008.7 |
| 20260505063044 | 13 | 360 | 8.0 | 19.3 | 0.00 | 0.00 | 0.00 | 61 | 1008.7 |
| 20260505062538 | 13 | 360 | 11.3 | 24.1 | 0.00 | 0.00 | 0.00 | 61 | 1008.7 |
| 20260505062038 | 13 | 360 | 14.5 | 24.1 | 0.00 | 0.00 | 0.00 | 61 | 1008.6 |
| 20260505061559 | 13 | 360 | 14.5 | 25.7 | 0.00 | 0.00 | 0.00 | 61 | 1008.5 |
| 20260505061039 | 13 | 360 | 14.5 | 29.0 | 0.00 | 0.00 | 0.00 | 61 | 1008.5 |
| 20260505060543 | 13 | 360 | 16.1 | 29.0 | 0.00 | 0.00 | 0.00 | 61 | 1008.4 |
| 20260505060050 | 13 | 360 | 19.3 | 29.0 | 0.00 | 0.00 | 0.00 | 61 | 1008.3 |
| 20260505055539 | 13 | 360 | 17.7 | 27.4 | 0.00 | 0.00 | 0.00 | 60 | 1008.2 |
| 20260505055038 | 13 | 360 | 14.5 | 22.5 | 0.00 | 0.00 | 0.00 | 60 | 1008.1 |
| 20260505054554 | 13 | 360 | 12.9 | 20.9 | 0.00 | 0.00 | 0.00 | 59 | 1008.1 |
| 20260505054039 | 13 | 360 | 9.7 | 16.1 | 0.00 | 0.00 | 0.00 | 58 | 1007.9 |
| 20260505053537 | 13 | 360 | 6.4 | 16.1 | 0.00 | 0.00 | 0.00 | 57 | 1007.8 |
| 20260505053057 | 13 | 360 | 3.2 | 8.0 | 0.00 | 0.00 | 0.00 | 56 | 1007.5 |
| 20260505052537 | 13 | 360 | 3.2 | 8.0 | 0.00 | 0.00 | 0.00 | 56 | 1007.4 |
| 20260505052038 | 13 | 360 | 3.2 | 6.4 | 0.00 | 0.00 | 0.00 | 56 | 1007.4 |
| 20260505051546 | 13 | 360 | 3.2 | 6.4 | 0.00 | 0.00 | 0.00 | 55 | 1007.4 |
| 20260505051039 | 14 | 360 | 3.2 | 8.0 | 0.00 | 0.00 | 0.00 | 55 | 1007.4 |
| 20260505050538 | 14 | 360 | 4.8 | 9.7 | 0.00 | 0.00 | 0.00 | 55 | 1007.3 |
| 20260505041553 | 14 | 360 | 12.9 | 20.9 | 0.00 | 0.00 | 0.00 | 54 | 1006.9 |
| 20260505041039 | 14 | 360 | 9.7 | 16.1 | 0.00 | 0.00 | 0.00 | 53 | 1006.8 |
| 20260505040541 | 14 | 360 | 8.0 | 14.5 | 0.00 | 0.00 | 0.00 | 52 | 1006.8 |
| 20260505040053 | 15 | 360 | 6.4 | 12.9 | 0.00 | 0.00 | 0.00 | 52 | 1006.7 |
| 20260505035539 | 15 | 360 | 6.4 | 12.9 | 0.00 | 0.00 | 0.00 | 51 | 1006.6 |
| 20260505035038 | 15 | 360 | 6.4 | 12.9 | 0.00 | 0.00 | 0.00 | 51 | 1006.5 |
| 20260505034550 | 15 | 360 | 6.4 | 16.1 | 0.00 | 0.00 | 0.00 | 51 | 1006.5 |
| 20260505034039 | 15 | 360 | 6.4 | 16.1 | 0.00 | 0.00 | 0.00 | 51 | 1006.4 |
| 20260505033540 | 15 | 143 | 6.4 | 16.1 | 0.00 | 0.00 | 0.00 | 50 | 1006.4 |
| 20260505033049 | 15 | 360 | 4.8 | 11.3 | 0.00 | 0.00 | 0.00 | 49 | 1006.2 |
| 20260505032537 | 15 | 140 | 4.8 | 9.7 | 0.00 | 0.00 | 0.00 | 47 | 1006.1 |
| 20260505032038 | 16 | 140 | 3.2 | 6.4 | 0.00 | 0.00 | 0.00 | 47 | 1006.0 |
| 20260505031551 | 16 | 138 | 1.6 | 4.8 | 0.00 | 0.00 | 0.00 | 46 | 1005.8 |
| 20260505031038 | 16 | 134 | 1.6 | 6.4 | 0.00 | 0.00 | 0.00 | 46 | 1005.7 |
| 20260505030539 | 16 | 145 | 0.0 | 6.4 | 0.00 | 0.00 | 0.00 | 44 | 1005.7 |
| 20260505030052 | 17 | 154 | 0.0 | 8.0 | 0.00 | 0.00 | 0.00 | 44 | 1005.6 |
| 20260505025540 | 17 | 165 | 3.2 | 8.0 | 0.00 | 0.00 | 0.00 | 45 | 1005.6 |
| 20260505025038 | 17 | 167 | 0.0 | 8.0 | 0.00 | 0.00 | 0.00 | 44 | 1005.6 |
| 20260505024551 | 18 | 160 | 1.6 | 8.0 | 0.00 | 0.00 | 0.00 | 42 | 1005.4 |
| 20260505024037 | 18 | 156 | 3.2 | 8.0 | 0.00 | 0.00 | 0.00 | 41 | 1005.3 |
| 20260505023539 | 18 | 163 | 1.6 | 6.4 | 0.00 | 0.00 | 0.00 | 40 | 1005.3 |
| 20260505023056 | 18 | 155 | 1.6 | 8.0 | 0.00 | 0.00 | 0.00 | 40 | 1005.3 |
| 20260505022539 | 19 | 138 | 3.2 | 9.7 | 0.00 | 0.00 | 0.00 | 39 | 1005.4 |
| 20260505022043 | 20 | 147 | 3.2 | 11.3 | 0.00 | 0.00 | 0.00 | 38 | 1005.3 |
| 20260505021557 | 20 | 360 | 4.8 | 14.5 | 0.00 | 0.00 | 0.00 | 38 | 1005.3 |
| 20260505021037 | 20 | 109 | 6.4 | 14.5 | 0.00 | 0.00 | 0.00 | 38 | 1005.3 |
| 20260505020540 | 20 | 190 | 8.0 | 14.5 | 0.00 | 0.00 | 0.00 | 37 | 1005.3 |
| 20260505020052 | 21 | 186 | 8.0 | 14.5 | 0.00 | 0.00 | 0.00 | 36 | 1005.2 |
| 20260505015537 | 21 | 191 | 6.4 | 14.5 | 0.00 | 0.00 | 0.00 | 36 | 1005.2 |
| 20260505015038 | 21 | 175 | 6.4 | 14.5 | 0.00 | 0.00 | 0.00 | 35 | 1005.2 |
| 20260505014554 | 21 | 159 | 4.8 | 12.9 | 0.00 | 0.00 | 0.00 | 35 | 1005.1 |
| 20260505014039 | 22 | 167 | 4.8 | 12.9 | 0.00 | 0.00 | 0.00 | 35 | 1005.1 |
| 20260505013537 | 22 | 167 | 8.0 | 14.5 | 0.00 | 0.00 | 0.00 | 34 | 1005.1 |
| 20260505013047 | 22 | 162 | 8.0 | 14.5 | 0.00 | 0.00 | 0.00 | 34 | 1005.1 |
| 20260505012539 | 22 | 133 | 6.4 | 12.9 | 0.00 | 0.00 | 0.00 | 33 | 1005.1 |
| 20260505012041 | 22 | 173 | 8.0 | 11.3 | 0.00 | 0.00 | 0.00 | 33 | 1005.2 |
| 20260505011554 | 22 | 159 | 6.4 | 17.7 | 0.00 | 0.00 | 0.00 | 33 | 1005.2 |
| 20260505011041 | 23 | 150 | 6.4 | 19.3 | 0.00 | 0.00 | 0.00 | 32 | 1005.3 |
| 20260505010538 | 23 | 142 | 9.7 | 19.3 | 0.00 | 0.00 | 0.00 | 32 | 1005.3 |
| 20260505010101 | 23 | 85 | 9.7 | 19.3 | 0.00 | 0.00 | 0.00 | 33 | 1005.3 |
| 20260505005537 | 23 | 132 | 9.7 | 17.7 | 0.00 | 0.00 | 0.00 | 32 | 1005.3 |
| 20260505005038 | 23 | 194 | 8.0 | 22.5 | 0.00 | 0.00 | 0.00 | 32 | 1005.4 |
| 20260505004548 | 23 | 163 | 9.7 | 22.5 | 0.00 | 0.00 | 0.00 | 33 | 1005.4 |
| 20260505004037 | 23 | 189 | 11.3 | 22.5 | 0.00 | 0.00 | 0.00 | 32 | 1005.5 |
| 20260505003542 | 23 | 173 | 14.5 | 22.5 | 0.00 | 0.00 | 0.00 | 32 | 1005.6 |
| 20260505003050 | 23 | 140 | 9.7 | 27.4 | 0.00 | 0.00 | 0.00 | 33 | 1005.6 |
| 20260505002538 | 22 | 138 | 12.9 | 27.4 | 0.00 | 0.00 | 0.00 | 34 | 1005.7 |
| 20260505002039 | 22 | 163 | 11.3 | 24.1 | 0.00 | 0.00 | 0.00 | 34 | 1005.7 |
| 20260505001549 | 22 | 163 | 14.5 | 24.1 | 0.00 | 0.00 | 0.00 | 34 | 1005.7 |
| 20260505001037 | 22 | 165 | 11.3 | 19.3 | 0.00 | 0.00 | 0.00 | 35 | 1005.7 |
| 20260505000540 | 22 | 131 | 9.7 | 19.3 | 0.00 | 0.00 | 0.00 | 34 | 1005.7 |
| 20260505000055 | 22 | 186 | 11.3 | 35.4 | 0.00 | 0.00 | 0.00 | 33 | 1005.8 |
| 20260504235539 | 22 | 148 | 11.3 | 35.4 | 0.00 | 0.00 | 0.00 | 33 | 1005.7 |
| 20260504235039 | 23 | 194 | 16.1 | 33.8 | 0.00 | 0.00 | 0.00 | 32 | 1005.8 |
| 20260504234555 | 22 | 211 | 16.1 | 29.0 | 0.00 | 0.00 | 0.00 | 33 | 1005.8 |
| 20260504234037 | 22 | 203 | 16.1 | 30.6 | 0.00 | 0.00 | 0.00 | 32 | 1005.9 |
| 20260504233540 | 22 | 187 | 16.1 | 30.6 | 0.00 | 0.00 | 0.00 | 31 | 1005.8 |
| 20260504233054 | 22 | 178 | 19.3 | 30.6 | 0.00 | 0.00 | 0.00 | 31 | 1005.8 |
| 20260504232538 | 22 | 208 | 11.3 | 22.5 | 0.00 | 0.00 | 0.00 | 32 | 1005.7 |
| 20260504232038 | 22 | 219 | 9.7 | 22.5 | 0.00 | 0.00 | 0.00 | 33 | 1005.7 |
| 20260504231552 | 22 | 211 | 8.0 | 20.9 | 0.00 | 0.00 | 0.00 | 33 | 1005.8 |
| 20260504231038 | 22 | 205 | 11.3 | 22.5 | 0.00 | 0.00 | 0.00 | 32 | 1005.8 |
| 20260504230538 | 22 | 138 | 12.9 | 24.1 | 0.00 | 0.00 | 0.00 | 31 | 1005.8 |
| 20260504230052 | 22 | 202 | 12.9 | 32.2 | 0.00 | 0.00 | 0.00 | 30 | 1005.7 |
| 20260504225536 | 22 | 177 | 11.3 | 32.2 | 0.00 | 0.00 | 0.00 | 31 | 1005.8 |
| 20260504225041 | 22 | 217 | 17.7 | 32.2 | 0.00 | 0.00 | 0.00 | 33 | 1005.8 |
| 20260504224552 | 22 | 240 | 16.1 | 27.4 | 0.00 | 0.00 | 0.00 | 33 | 1005.8 |
| 20260504224040 | 22 | 194 | 12.9 | 29.0 | 0.00 | 0.00 | 0.00 | 34 | 1005.8 |
| 20260504223541 | 22 | 195 | 11.3 | 29.0 | 0.00 | 0.00 | 0.00 | 34 | 1005.8 |
| 20260504223049 | 22 | 184 | 16.1 | 32.2 | 0.00 | 0.00 | 0.00 | 33 | 1005.8 |
| 20260504222537 | 22 | 193 | 17.7 | 32.2 | 0.00 | 0.00 | 0.00 | 34 | 1005.8 |
| 20260504222039 | 23 | 235 | 19.3 | 37.0 | 0.00 | 0.00 | 0.00 | 32 | 1005.8 |
| 20260504221548 | 23 | 182 | 16.1 | 37.0 | 0.00 | 0.00 | 0.00 | 31 | 1005.8 |
| 20260504221038 | 24 | 202 | 17.7 | 37.0 | 0.00 | 0.00 | 0.00 | 29 | 1005.8 |
| 20260504220538 | 25 | 252 | 14.5 | 24.1 | 0.00 | 0.00 | 0.00 | 26 | 1005.8 |
| 20260504220111 | 24 | 240 | 9.7 | 20.9 | 0.00 | 0.00 | 0.00 | 26 | 1005.8 |
| 20260504215537 | 24 | 207 | 8.0 | 20.9 | 0.00 | 0.00 | 0.00 | 26 | 1005.9 |
| 20260504215036 | 24 | 228 | 12.9 | 20.9 | 0.00 | 0.00 | 0.00 | 27 | 1005.9 |
| 20260504214553 | 24 | 233 | 9.7 | 19.3 | 0.00 | 0.00 | 0.00 | 27 | 1006.0 |
| 20260504214038 | 25 | 252 | 6.4 | 17.7 | 0.00 | 0.00 | 0.00 | 27 | 1006.1 |
| 20260504213538 | 25 | 288 | 6.4 | 17.7 | 0.00 | 0.00 | 0.00 | 26 | 1006.1 |
| 20260504213053 | 24 | 310 | 9.7 | 17.7 | 0.00 | 0.00 | 0.00 | 27 | 1006.2 |
| 20260504212538 | 24 | 275 | 3.2 | 20.9 | 0.00 | 0.00 | 0.00 | 26 | 1006.4 |
| 20260504212039 | 24 | 291 | 8.0 | 22.5 | 0.00 | 0.00 | 0.00 | 26 | 1006.4 |
| 20260504211554 | 24 | 240 | 12.9 | 22.5 | 0.00 | 0.00 | 0.00 | 27 | 1006.5 |
| 20260504211038 | 24 | 195 | 6.4 | 19.3 | 0.00 | 0.00 | 0.00 | 28 | 1006.6 |
| 20260504210537 | 24 | 175 | 11.3 | 19.3 | 0.00 | 0.00 | 0.00 | 27 | 1006.7 |
| 20260504210050 | 24 | 237 | 8.0 | 24.1 | 0.00 | 0.00 | 0.00 | 28 | 1006.7 |
| 20260504205541 | 24 | 115 | 8.0 | 24.1 | 0.00 | 0.00 | 0.00 | 27 | 1006.7 |
| 20260504205037 | 24 | 259 | 11.3 | 24.1 | 0.00 | 0.00 | 0.00 | 27 | 1006.8 |
| 20260504204551 | 24 | 285 | 6.4 | 20.9 | 0.00 | 0.00 | 0.00 | 28 | 1006.8 |
| 20260504204038 | 24 | 338 | 12.9 | 20.9 | 0.00 | 0.00 | 0.00 | 28 | 1006.9 |
| 20260504203538 | 24 | 242 | 8.0 | 17.7 | 0.00 | 0.00 | 0.00 | 27 | 1006.9 |
| 20260504203049 | 24 | 277 | 8.0 | 22.5 | 0.00 | 0.00 | 0.00 | 28 | 1007.0 |
| 20260504202537 | 24 | 198 | 8.0 | 22.5 | 0.00 | 0.00 | 0.00 | 27 | 1007.0 |
| 20260504202038 | 24 | 238 | 11.3 | 22.5 | 0.00 | 0.00 | 0.00 | 29 | 1007.0 |
| 20260504201551 | 24 | 273 | 12.9 | 22.5 | 0.00 | 0.00 | 0.00 | 27 | 1007.0 |
| 20260504201041 | 24 | 317 | 11.3 | 24.1 | 0.00 | 0.00 | 0.00 | 28 | 1007.0 |
| 20260504200540 | 24 | 267 | 8.0 | 24.1 | 0.00 | 0.00 | 0.00 | 29 | 1007.1 |
| 20260504200059 | 24 | 254 | 12.9 | 22.5 | 0.00 | 0.00 | 0.00 | 29 | 1007.1 |
| 20260504195538 | 24 | 240 | 11.3 | 40.2 | 0.00 | 0.00 | 0.00 | 28 | 1007.1 |
| 20260504195037 | 24 | 225 | 14.5 | 40.2 | 0.00 | 0.00 | 0.00 | 30 | 1007.1 |
| 20260504194553 | 23 | 243 | 8.0 | 19.3 | 0.00 | 0.00 | 0.00 | 32 | 1006.8 |
| 20260504194038 | 24 | 297 | 4.8 | 19.3 | 0.00 | 0.00 | 0.00 | 30 | 1007.3 |
| 20260504193538 | 24 | 251 | 9.7 | 19.3 | 0.00 | 0.00 | 0.00 | 31 | 1007.4 |
| 20260504193054 | 24 | 242 | 8.0 | 19.3 | 0.00 | 0.00 | 0.00 | 31 | 1007.4 |
| 20260504192537 | 23 | 236 | 6.4 | 19.3 | 0.00 | 0.00 | 0.00 | 31 | 1007.4 |
| 20260504192038 | 23 | 259 | 6.4 | 19.3 | 0.00 | 0.00 | 0.00 | 32 | 1007.5 |
| 20260504191556 | 23 | 259 | 4.8 | 17.7 | 0.00 | 0.00 | 0.00 | 31 | 1007.6 |
| 20260504191038 | 23 | 238 | 9.7 | 17.7 | 0.00 | 0.00 | 0.00 | 29 | 1007.6 |
| 20260504190539 | 23 | 252 | 1.6 | 14.5 | 0.00 | 0.00 | 0.00 | 30 | 1007.6 |
| 20260504190107 | 23 | 351 | 8.0 | 14.5 | 0.00 | 0.00 | 0.00 | 29 | 1007.7 |
| 20260504185543 | 24 | 270 | 6.4 | 14.5 | 0.00 | 0.00 | 0.00 | 30 | 1007.8 |
| 20260504185038 | 23 | 202 | 3.2 | 8.0 | 0.00 | 0.00 | 0.00 | 29 | 1007.8 |
| 20260504184602 | 23 | 0 | 1.6 | 16.1 | 0.00 | 0.00 | 0.00 | 30 | 1007.8 |
| 20260504184038 | 23 | 0 | 1.6 | 16.1 | 0.00 | 0.00 | 0.00 | 32 | 1007.8 |
| 20260504183538 | 24 | 263 | 8.0 | 16.1 | 0.00 | 0.00 | 0.00 | 30 | 1007.9 |
| 20260504183056 | 24 | 234 | 6.4 | 14.5 | 0.00 | 0.00 | 0.00 | 30 | 1008.0 |
| 20260504182537 | 24 | 211 | 4.8 | 16.1 | 0.00 | 0.00 | 0.00 | 30 | 1008.0 |
| 20260504182042 | 24 | 200 | 8.0 | 16.1 | 0.00 | 0.00 | 0.00 | 31 | 1008.1 |
| 20260504181554 | 24 | 0 | 4.8 | 16.1 | 0.00 | 0.00 | 0.00 | 33 | 1008.2 |
| 20260504181038 | 23 | 213 | 3.2 | 16.1 | 0.00 | 0.00 | 0.00 | 31 | 1008.2 |
| 20260504180540 | 23 | 123 | 6.4 | 16.1 | 0.00 | 0.00 | 0.00 | 33 | 1008.3 |
| 20260504180054 | 23 | 167 | 3.2 | 12.9 | 0.00 | 0.00 | 0.00 | 31 | 1008.5 |
| 20260504175538 | 23 | 0 | 3.2 | 12.9 | 0.00 | 0.00 | 0.00 | 31 | 1008.5 |
| 20260504175038 | 23 | 128 | 6.4 | 12.9 | 0.00 | 0.00 | 0.00 | 32 | 1008.6 |
| 20260504174546 | 23 | 43 | 3.2 | 17.7 | 0.00 | 0.00 | 0.00 | 33 | 1008.6 |
| 20260504174038 | 23 | 153 | 4.8 | 17.7 | 0.00 | 0.00 | 0.00 | 32 | 1008.6 |
| 20260504173538 | 23 | 155 | 8.0 | 17.7 | 0.00 | 0.00 | 0.00 | 31 | 1008.7 |
| 20260504173047 | 23 | 215 | 0.0 | 16.1 | 0.00 | 0.00 | 0.00 | 32 | 1008.7 |
| 20260504172538 | 23 | 109 | 6.4 | 16.1 | 0.00 | 0.00 | 0.00 | 33 | 1008.7 |
| 20260504172038 | 23 | 180 | 3.2 | 12.9 | 0.00 | 0.00 | 0.00 | 35 | 1008.7 |
| 20260504171554 | 22 | 157 | 4.8 | 12.9 | 0.00 | 0.00 | 0.00 | 34 | 1008.8 |
| 20260504171040 | 22 | 188 | 4.8 | 20.9 | 0.00 | 0.00 | 0.00 | 35 | 1008.8 |